Location: Palmerston North
(40.3500°S, 175.6170°E)
Time: 04:29:10
(UTC+13:00)

Spot 2 Rocket - Pass Details

Date: 24 January 2019
Orbit: 758 x 772 km, 98.6° (Epoch: 17 February)

Event Time Altitude Azimuth Distance (km) Brightness Sun altitude
Rises 23:14:25 0° 173° (S) 3,282 7.5 -22.6°
Reaches altitude 10° 23:16:49 10° 178° (S) 2,346 6.7 -22.9°
Maximum altitude 23:21:47 49° 251° (WSW) 999 4.3 -23.4°
Enters shadow 23:25:12 19° 318° (NW) 1,763 5.2 -23.8°
